Regional Weather Roundup
Issued by NWS Midland/Odessa, TX

Home | Current Version | Previous Version | Text Only | Print | Product List | Glossary On
Versions: 1 2 3 4 5 6 7 8 9 10 11 12 13 14 15 16 17 18 19 20 21 22 23 24 25 26 27 28 29 30 31 32 33 34 35 36 37 38 39 40 41 42 43 44 45 46 47 48 49 50
000
ASUS44 KMAF 182110
RWRMAF
MIDLAND AREA WEATHER ROUNDUP
NATIONAL WEATHER SERVICE MIDLAND TX
400 PM CDT FRI APR 18 2014

...IN SOUTHWEST TEXAS AND SOUTHEAST NEW MEXICO...

CITY           SKY/WX    TMP DP  RH WIND       PRES   REMARKS
ALPINE         MOSUNNY   77  38  24 S10       30.17F
ANDREWS        FAIR      71  48  43 SE15      30.14F
ARTESIA        CLOUDY    66  48  52 S20G26    30.10F
BIG SPRING     MOSUNNY   74  48  40 SE9       30.16F
CARLSBAD       CLOUDY    73  48  41 SE16G22   30.08F
DRYDEN           N/A     75  55  49 E13G22    30.09F
FORT STOCKTON  PTSUNNY   74  48  39 SE18G28   30.09F
GUAD PASS      MOSUNNY   66  45  46 E17G32    30.16F
HOBBS          MOSUNNY   68  46  45 SE16G24   30.14F
MARFA          MOSUNNY   75  39  27 SE8G18    30.16F
MIDLAND AIRPK  PTSUNNY   75  47  38 S10       30.13F
MIDLAND INTL   PTSUNNY   75  47  36 SE17G23   30.12F
ODESSA         PTSUNNY   76  47  35 SE17      30.12F
PECOS          PTSUNNY   81  46  30 E18G26    30.07S
PRESIDIO       FAIR      84  44  24 E12G21    30.01F
SEMINOLE       PTSUNNY   71  47  43 S12G20    30.15F
SNYDER         SUNNY     69  49  48 NE6       30.17F
WINK           CLOUDY    77  48  35 E16       30.07F
$$
...OTHER STATIONS IN TEXAS...

CITY           SKY/WX    TMP DP  RH WIND       PRES   REMARKS
ABILENE        MOSUNNY   72  47  40 S5        30.16F
AMARILLO       SUNNY     72  42  34 S18G30    30.11F
AUSTIN         MOSUNNY   76  56  49 VRB3      30.12F
BROWNSVILLE    CLOUDY    75  62  64 NE12      30.11F
CORPUS CHRISTI MOSUNNY   79  56  45 E14       30.10F
DALLAS FTW     MOSUNNY   75  48  38 VRB5      30.14F
DEL RIO        PTSUNNY   77  53  43 E10       30.10F
EL PASO        CLOUDY    81  33  17 SE12G24   30.01F
HOUSTON INT    MOSUNNY   78  53  41 VRB6      30.10F
LUBBOCK        CLOUDY    70  47  43 S16G22    30.14F
SAN ANGELO     PTSUNNY   77  48  35 E9        30.13F
SAN ANTONIO    PTSUNNY   79  54  41 NE8       30.12F
WACO           MOSUNNY   71  52  50 CALM      30.15F
WICHITA FALLS  NOT AVBL
$$
...OTHER LOCATIONS IN NEW MEXICO...

CITY           SKY/WX    TMP DP  RH WIND       PRES   REMARKS
ALAMAGORDO     PTSUNNY   79  32  18 S20G28    30.05F
ALBUQUERQUE    CLOUDY    74  24  15 S8        30.06F
CANNON AFB     MOSUNNY   69  45  41 S17G24    30.12F
CLOVIS         SUNNY     68  46  45 S17       30.16F
HOLLOMAN AFB   CLOUDY    79  34  20 S14G22    30.04F
ROSWELL        CLOUDY    70  48  45 S20       30.09F
RUIDOSO        CLOUDY    64  36  34 SE18G25   30.19S
SANTA FE       PTSUNNY   71  22  15 SW12      30.10F
TRUTH OR CONSE PTSUNNY   76  28  17 S13G20    30.05F
TUCUMCARI      SUNNY     76  42  29 S22G31    30.04F
$$



USA.gov is the U.S. government's official web portal to all federal, state and local government web resources and services.